QPF
0.00 0.00 0.00 0.00 0.00 0.00 0.00 0.00 0.00 0.00 0.00 0.00 0.00 0.00 0.00 0.00 0.00 0.00 0.00 0.00 0.00 0.00 0.00 0.00 0.00 0.00 0.00 0.00 0.00 0.00 0.00 0.00 0.00 0.00 0.00 0.00 0.00 0.00 0.00 0.00 0.00 0.00 0.00 0.00
0.00 0.00 0.00 0.00 0.00 0.00 0.00 0.00 0.00 0.00 0.00 0.00 0.00 0.00 0.00 0.00 0.00 0.00 0.00 0.00 0.00 0.00 0.00 0.00 0.00 0.00 0.00 0.00 0.00 0.00 0.00 0.00 0.00 0.00 0.00 0.00 0.00 0.00 0.00 0.00 0.00 0.00 0.00 0.00
0.00 0.00 0.00 0.00 0.00 0.00 0.00 0.00 0.00 0.00 0.00 0.00 0.00 0.00 0.00 0.00 0.00 0.00 0.00 0.00 0.00 0.00 0.00 0.00 0.00 0.00 0.00 0.00 0.00 0.00 0.00 0.00 0.00 0.00 0.00 0.00 0.00 0.00 0.00 0.00 0.00 0.00 0.00 0.00
0.00 0.00 0.00 0.00 0.00 0.00 0.00 0.00 0.00 0.00 0.00 0.00 0.00 0.00 0.00 0.00 0.00 0.00 0.00 0.00 0.00 0.00 0.00 0.00 0.00 0.00 0.00 0.00 0.00 0.00 0.00 0.00 0.00 0.00 0.00 0.00 0.00 0.00 0.00 0.00 0.00 0.00 0.00 0.00
0.00 0.00 0.00 0.00 0.00 0.00 0.00 0.00 0.00 0.00 0.00 0.00 0.00 0.00 0.00 0.00 0.00 0.00 0.00 0.00 0.00 0.00 0.00 0.00 0.00 0.00 0.00 0.00 0.00 0.00 0.00 0.00 0.00 0.00 0.00 0.00 0.00 0.00 0.00 0.00 0.00 0.00 0.00 0.00
0.00 0.00 0.00 0.00 0.00 0.00 0.00 0.00 0.00 0.00 0.00 0.00 0.00 0.00 0.00 0.00 0.00 0.00 0.00 0.00 0.00 0.00 0.00 0.00 0.00 0.00 0.00 0.00 0.00 0.00 0.00 0.00 0.00 0.00 0.00 0.00 0.00 0.00 0.00 0.00 0.00 0.00 0.00 0.00
0.00 0.00 0.00 0.00 0.00 0.00 0.00 0.00 0.00 0.00 0.00 0.00 0.00 0.00 0.00 0.00 0.00 0.00 0.00 0.00 0.00 0.00 0.00 0.00 0.00 0.00 0.00 0.00 0.00 0.00 0.00 0.00 0.00 0.00 0.00 0.00 0.00 0.00 0.00 0.00 0.00 0.00 0.00 0.00
0.00 0.00 0.00 0.00 0.00 0.00 0.00 0.00 0.00 0.00 0.00 0.00 0.00 0.00 0.00 0.00 0.00 0.00 0.00 0.00 0.00 0.00 0.00 0.00 0.00 0.00 0.00 0.00 0.00 0.00 0.00 0.00 0.00 0.00 0.00 0.00 0.00 0.00 0.00 0.00 0.00 0.00 0.00 0.00
0.00 0.00 0.00 0.00 0.00 0.00 0.00 0.00 0.00 0.00 0.00 0.00 0.00 0.00 0.00 0.00 0.00 0.00 0.00 0.00 0.00 0.00 0.00 0.00 0.00 0.00 0.00 0.00 0.00 0.00 0.00 0.00 0.00 0.00 0.00 0.00 0.00 0.00 0.00 0.00 0.00 0.00 0.00 0.00
0.00 0.00 0.00 0.00 0.00 0.00 0.00 0.00 0.00 0.01 0.01 0.00 0.00 0.00 0.00 0.00 0.00 0.00 0.00 0.00 0.00 0.00 0.00 0.00 0.00 0.00 0.00 0.00 0.00 0.00 0.00 0.00 0.00 0.00 0.00 0.00 0.00 0.00 0.00 0.00 0.00 0.00 0.00 0.00
0.00 0.00 0.00 0.00 0.00 0.00 0.00 0.00 0.00 0.01 0.00 0.00 0.00 0.00 0.00 0.00 0.00 0.00 0.00 0.00 0.00 0.00 0.00 0.00 0.00 0.00 0.00 0.00 0.00 0.00 0.00 0.00 0.00 0.00 0.00 0.00 0.00 0.00 0.00 0.00 0.00 0.00 0.00 0.00
0.00 0.00 0.00 0.00 0.00 0.00 0.00 0.00 0.00 0.01 0.00 0.00 0.00 0.00 0.00 0.00 0.00 0.00 0.00 0.00 0.00 0.00 0.00 0.00 0.00 0.00 0.00 0.00 0.00 0.00 0.00 0.00 0.00 0.00 0.00 0.00 0.00 0.00 0.00 0.00 0.00 0.00 0.00 0.00
0.00 0.00 0.00 0.00 0.00 0.00 0.00 0.00 0.00 0.00 0.00 0.00 0.00 0.00 0.00 0.00 0.00 0.00 0.00 0.00 0.00 0.00 0.00 0.00 0.00 0.00 0.00 0.00 0.00 0.00 0.00 0.00 0.00 0.00 0.00 0.00 0.00 0.00 0.00 0.00 0.00 0.00 0.00 0.00
0.00 0.00 0.00 0.00 0.00 0.00 0.00 0.00 0.00 0.00 0.00 0.00 0.00 0.00 0.00 0.00 0.00 0.00 0.00 0.00 0.00 0.00 0.00 0.00 0.00 0.00 0.00 0.00 0.00 0.00 0.00 0.00 0.00 0.00 0.00 0.00 0.00 0.00 0.00 0.00 0.00 0.00 0.00 0.00
0.00 0.00 0.00 0.00 0.00 0.00 0.00 0.00 0.00 0.00 0.00 0.00 0.00 0.00 0.00 0.00 0.00 0.00 0.00 0.00 0.00 0.00 0.00 0.00 0.00 0.00 0.00 0.00 0.00 0.00 0.00 0.00 0.00 0.00 0.00 0.00 0.00 0.00 0.00 0.00 0.00 0.00 0.00 0.00
0.00 0.00 0.00 0.00 0.00 0.00 0.00 0.00 0.00 0.00 0.00 0.00 0.00 0.00 0.00 0.00 0.00 0.00 0.00 0.00 0.00 0.00 0.00 0.00 0.00 0.00 0.00 0.00 0.00 0.00 0.00 0.00 0.00 0.00 0.00 0.00 0.00 0.00 0.00 0.00 0.00 0.00 0.00 0.00
0.00 0.00 0.00 0.00 0.00 0.00 0.00 0.00 0.00 0.00 0.00 0.00 0.00 0.00 0.00 0.00 0.00 0.00 0.00 0.00 0.00 0.00 0.00 0.00 0.00 0.00 0.00 0.00 0.00 0.00 0.00 0.00 0.00 0.00 0.00 0.00 0.00 0.00 0.00 0.00 0.00 0.00 0.00 0.00
0.00 0.00 0.00 0.00 0.00 0.01 0.00 0.00 0.00 0.00 0.00 0.00 0.00 0.00 0.00 0.00 0.00 0.00 0.00 0.00 0.00 0.00 0.00 0.00 0.00 0.00 0.00 0.00 0.00 0.00 0.00 0.00 0.00 0.00 0.00 0.00 0.00 0.00 0.00 0.00 0.00 0.00 0.00 0.00
0.00 0.00 0.00 0.00 0.00 0.00 0.00 0.00 0.00 0.00 0.00 0.00 0.00 0.00 0.00 0.00 0.00 0.00 0.00 0.00 0.00 0.00 0.00 0.00 0.00 0.00 0.00 0.00 0.00 0.00 0.00 0.00 0.00 0.00 0.00 0.00 0.00 0.00 0.00 0.00 0.00 0.00 0.00 0.00
0.00 0.00 0.00 0.00 0.00 0.00 0.00 0.00 0.00 0.00 0.00 0.00 0.00 0.00 0.00 0.00 0.00 0.00 0.00 0.00 0.00 0.00 0.00 0.00 0.00 0.00 0.00 0.00 0.00 0.00 0.00 0.00 0.00 0.00 0.00 0.00 0.00 0.00 0.00 0.00 0.00 0.00 0.00 0.00
0.00 0.00 0.00 0.00 0.00 0.00 0.00 0.00 0.00 0.00 0.00 0.00 0.00 0.00 0.00 0.00 0.00 0.00 0.00 0.00 0.00 0.00 0.00 0.00 0.00 0.00 0.00 0.00 0.00 0.00 0.00 0.00 0.00 0.00 0.00 0.00 0.00 0.00 0.00 0.00 0.00 0.00 0.00 0.00
0.00 0.00 0.00 0.00 0.00 0.00 0.00 0.00 0.00 0.00 0.00 0.00 0.00 0.00 0.00 0.00 0.00 0.00 0.00 0.00 0.00 0.00 0.00 0.00 0.00 0.00 0.00 0.00 0.00 0.00 0.00 0.00 0.00 0.00 0.00 0.00 0.00 0.00 0.00 0.00 0.00 0.00 0.00 0.00
0.00 0.00 0.00 0.00 0.00 0.00 0.00 0.00 0.00 0.00 0.00 0.00 0.00 0.00 0.00 0.00 0.00 0.00 0.00 0.00 0.00 0.00 0.00 0.00 0.00 0.00 0.00 0.00 0.00 0.00 0.00 0.00 0.00 0.00 0.00 0.00 0.00 0.00 0.00 0.00 0.00 0.00 0.00 0.00
0.00 0.00 0.00 0.00 0.00 0.00 0.00 0.00 0.00 0.00 0.00 0.00 0.00 0.00 0.00 0.00 0.00 0.00 0.00 0.00 0.00 0.00 0.00 0.00 0.00 0.00 0.00 0.00 0.00 0.00 0.00 0.00 0.00 0.00 0.00 0.00 0.00 0.00 0.00 0.00 0.00 0.00 0.00 0.00
0.00 0.00 0.00 0.00 0.00 0.00 0.00 0.00 0.00 0.00 0.00 0.00 0.00 0.00 0.00 0.00 0.00 0.00 0.00 0.00 0.00 0.00 0.00 0.00 0.00 0.00 0.00 0.00 0.00 0.00 0.00 0.00 0.00 0.00 0.00 0.00 0.00 0.00 0.00 0.00 0.00 0.00 0.00 0.00
0.00 0.00 0.00 0.00 0.00 0.00 0.00 0.00 0.00 0.00 0.00 0.00 0.00 0.00 0.00 0.00 0.00 0.00 0.00 0.00 0.00 0.00 0.00 0.00 0.00 0.00 0.00 0.00 0.00 0.00 0.00 0.00 0.00 0.00 0.00 0.00 0.00 0.00 0.00 0.00 0.00 0.00 0.00 0.00
MSLP
1014.62 1015.35 1015.94 1016.36 1016.65 1016.83 1016.94 1017.01 1017.06 1017.05 1016.98 1016.79 1016.47 1016.02 1015.46 1014.86 1014.27 1013.78 1013.45 1013.30 1013.35 1013.54 1013.83 1014.15 1014.43 1014.66 1014.81 1014.92 1015.03 1015.19 1015.45 1015.84 1016.36 1016.98 1017.64 1018.30 1018.90 1019.41 1019.80 1020.09 1020.30 1020.47 1020.66 1020.87
1014.74 1015.37 1015.86 1016.23 1016.49 1016.70 1016.88 1017.06 1017.21 1017.29 1017.26 1017.06 1016.68 1016.11 1015.41 1014.64 1013.90 1013.30 1012.90 1012.74 1012.82 1013.09 1013.47 1013.89 1014.26 1014.55 1014.74 1014.87 1014.98 1015.14 1015.41 1015.81 1016.35 1017.01 1017.72 1018.43 1019.07 1019.61 1020.01 1020.30 1020.51 1020.68 1020.86 1021.07
1014.65 1015.16 1015.56 1015.88 1016.14 1016.41 1016.70 1017.00 1017.28 1017.46 1017.47 1017.26 1016.80 1016.11 1015.24 1014.30 1013.41 1012.69 1012.23 1012.06 1012.17 1012.52 1013.00 1013.53 1014.01 1014.38 1014.64 1014.81 1014.95 1015.13 1015.42 1015.85 1016.43 1017.12 1017.88 1018.63 1019.31 1019.87 1020.30 1020.59 1020.80 1020.97 1021.14 1021.34
1014.35 1014.75 1015.06 1015.34 1015.64 1016.00 1016.42 1016.86 1017.27 1017.55 1017.61 1017.38 1016.84 1016.01 1014.98 1013.87 1012.83 1011.99 1011.46 1011.28 1011.43 1011.86 1012.45 1013.09 1013.69 1014.16 1014.51 1014.74 1014.94 1015.15 1015.47 1015.94 1016.54 1017.27 1018.06 1018.85 1019.55 1020.14 1020.58 1020.88 1021.10 1021.26 1021.42 1021.62
1013.90 1014.18 1014.43 1014.70 1015.05 1015.51 1016.07 1016.67 1017.22 1017.59 1017.69 1017.44 1016.81 1015.85 1014.66 1013.39 1012.21 1011.27 1010.68 1010.49 1010.68 1011.18 1011.87 1012.63 1013.34 1013.93 1014.37 1014.68 1014.93 1015.19 1015.54 1016.03 1016.66 1017.40 1018.20 1019.00 1019.72 1020.32 1020.77 1021.10 1021.32 1021.49 1021.66 1021.86
1013.35 1013.53 1013.73 1014.00 1014.42 1014.99 1015.70 1016.44 1017.11 1017.57 1017.70 1017.42 1016.71 1015.64 1014.32 1012.92 1011.62 1010.59 1009.96 1009.76 1009.99 1010.56 1011.34 1012.21 1013.03 1013.71 1014.24 1014.63 1014.94 1015.24 1015.61 1016.10 1016.73 1017.46 1018.26 1019.05 1019.77 1020.38 1020.85 1021.19 1021.43 1021.63 1021.81 1022.02
1012.74 1012.86 1013.02 1013.32 1013.80 1014.48 1015.31 1016.18 1016.94 1017.47 1017.62 1017.32 1016.56 1015.40 1013.98 1012.49 1011.11 1010.03 1009.37 1009.18 1009.44 1010.07 1010.93 1011.87 1012.78 1013.55 1014.15 1014.60 1014.95 1015.28 1015.66 1016.14 1016.74 1017.45 1018.22 1018.99 1019.70 1020.30 1020.78 1021.15 1021.43 1021.65 1021.87 1022.09
1012.11 1012.18 1012.34 1012.67 1013.22 1013.98 1014.90 1015.86 1016.69 1017.26 1017.42 1017.11 1016.32 1015.12 1013.66 1012.13 1010.73 1009.63 1008.97 1008.79 1009.08 1009.74 1010.64 1011.64 1012.60 1013.42 1014.08 1014.57 1014.95 1015.29 1015.67 1016.13 1016.70 1017.37 1018.09 1018.83 1019.52 1020.12 1020.62 1021.01 1021.32 1021.59 1021.84 1022.10
1011.45 1011.52 1011.70 1012.07 1012.67 1013.49 1014.46 1015.45 1016.32 1016.90 1017.06 1016.75 1015.96 1014.77 1013.33 1011.82 1010.45 1009.38 1008.75 1008.59 1008.89 1009.56 1010.47 1011.48 1012.45 1013.30 1013.98 1014.50 1014.90 1015.25 1015.62 1016.06 1016.60 1017.23 1017.92 1018.62 1019.29 1019.89 1020.39 1020.81 1021.16 1021.47 1021.76 1022.05
1010.76 1010.86 1011.09 1011.50 1012.14 1012.98 1013.96 1014.94 1015.79 1016.36 1016.52 1016.22 1015.46 1014.33 1012.96 1011.53 1010.24 1009.24 1008.65 1008.52 1008.82 1009.47 1010.35 1011.33 1012.28 1013.12 1013.80 1014.33 1014.75 1015.12 1015.50 1015.94 1016.47 1017.07 1017.73 1018.41 1019.06 1019.65 1020.16 1020.61 1020.99 1021.33 1021.65 1021.96
1010.03 1010.21 1010.50 1010.96 1011.61 1012.44 1013.38 1014.31 1015.10 1015.61 1015.75 1015.47 1014.77 1013.73 1012.48 1011.19 1010.02 1009.12 1008.60 1008.48 1008.76 1009.36 1010.18 1011.08 1011.98 1012.78 1013.45 1014.00 1014.45 1014.86 1015.27 1015.74 1016.29 1016.90 1017.55 1018.22 1018.86 1019.45 1019.97 1020.42 1020.82 1021.18 1021.51 1021.83
1009.28 1009.58 1009.95 1010.45 1011.10 1011.88 1012.74 1013.56 1014.25 1014.68 1014.78 1014.51 1013.88 1012.96 1011.87 1010.73 1009.71 1008.94 1008.48 1008.38 1008.62 1009.14 1009.86 1010.67 1011.48 1012.23 1012.89 1013.45 1013.95 1014.42 1014.91 1015.45 1016.05 1016.70 1017.38 1018.06 1018.70 1019.29 1019.81 1020.26 1020.66 1021.02 1021.34 1021.65
1008.56 1008.98 1009.45 1009.99 1010.62 1011.32 1012.06 1012.74 1013.28 1013.60 1013.64 1013.37 1012.81 1012.02 1011.08 1010.13 1009.27 1008.61 1008.22 1008.12 1008.31 1008.74 1009.34 1010.03 1010.75 1011.44 1012.08 1012.68 1013.24 1013.81 1014.40 1015.04 1015.73 1016.45 1017.18 1017.89 1018.55 1019.15 1019.66 1020.11 1020.49 1020.82 1021.12 1021.39
1007.92 1008.47 1009.02 1009.59 1010.19 1010.79 1011.37 1011.87 1012.24 1012.42 1012.38 1012.09 1011.59 1010.91 1010.14 1009.36 1008.66 1008.12 1007.79 1007.69 1007.82 1008.14 1008.62 1009.19 1009.81 1010.44 1011.07 1011.71 1012.36 1013.04 1013.75 1014.52 1015.32 1016.13 1016.93 1017.69 1018.38 1018.98 1019.49 1019.91 1020.26 1020.57 1020.83 1021.06
1007.39 1008.07 1008.69 1009.28 1009.81 1010.29 1010.69 1011.00 1011.17 1011.19 1011.05 1010.73 1010.27 1009.70 1009.07 1008.45 1007.90 1007.47 1007.20 1007.10 1007.18 1007.41 1007.76 1008.22 1008.74 1009.33 1009.96 1010.64 1011.37 1012.16 1013.02 1013.91 1014.82 1015.73 1016.61 1017.41 1018.12 1018.74 1019.24 1019.65 1019.98 1020.24 1020.46 1020.65
1006.99 1007.76 1008.44 1009.01 1009.47 1009.81 1010.03 1010.13 1010.10 1009.96 1009.70 1009.34 1008.91 1008.43 1007.94 1007.46 1007.06 1006.74 1006.53 1006.45 1006.48 1006.63 1006.89 1007.25 1007.70 1008.24 1008.87 1009.59 1010.40 1011.29 1012.25 1013.26 1014.27 1015.26 1016.20 1017.04 1017.78 1018.40 1018.90 1019.30 1019.61 1019.85 1020.04 1020.19
1006.70 1007.53 1008.22 1008.75 1009.11 1009.31 1009.35 1009.25 1009.03 1008.74 1008.38 1007.98 1007.58 1007.18 1006.81 1006.48 1006.22 1006.01 1005.88 1005.83 1005.85 1005.96 1006.15 1006.44 1006.83 1007.33 1007.96 1008.70 1009.56 1010.52 1011.56 1012.63 1013.71 1014.76 1015.73 1016.60 1017.35 1017.98 1018.48 1018.87 1019.18 1019.41 1019.59 1019.72
1006.45 1007.28 1007.94 1008.41 1008.66 1008.72 1008.59 1008.32 1007.95 1007.53 1007.10 1006.68 1006.32 1006.01 1005.77 1005.59 1005.47 1005.39 1005.36 1005.37 1005.42 1005.51 1005.68 1005.93 1006.28 1006.76 1007.37 1008.11 1008.98 1009.97 1011.03 1012.13 1013.22 1014.27 1015.25 1016.11 1016.87 1017.49 1018.00 1018.40 1018.72 1018.96 1019.14 1019.27
1006.15 1006.93 1007.52 1007.90 1008.04 1007.97 1007.71 1007.31 1006.83 1006.34 1005.87 1005.48 1005.18 1004.98 1004.87 1004.85 1004.89 1004.96 1005.05 1005.15 1005.26 1005.39 1005.56 1005.80 1006.13 1006.58 1007.17 1007.89 1008.74 1009.70 1010.73 1011.79 1012.85 1013.87 1014.81 1015.65 1016.38 1017.00 1017.51 1017.93 1018.27 1018.53 1018.73 1018.87
1005.73 1006.40 1006.90 1007.16 1007.20 1007.03 1006.67 1006.20 1005.67 1005.16 1004.72 1004.39 1004.19 1004.12 1004.17 1004.32 1004.52 1004.75 1004.98 1005.20 1005.40 1005.59 1005.80 1006.05 1006.38 1006.82 1007.36 1008.04 1008.83 1009.72 1010.67 1011.66 1012.64 1013.58 1014.45 1015.25 1015.94 1016.55 1017.06 1017.49 1017.85 1018.14 1018.37 1018.52
1005.13 1005.68 1006.04 1006.20 1006.15 1005.90 1005.50 1005.02 1004.51 1004.04 1003.68 1003.45 1003.38 1003.47 1003.68 1004.00 1004.37 1004.76 1005.14 1005.48 1005.79 1006.06 1006.33 1006.61 1006.95 1007.36 1007.87 1008.49 1009.20 1009.99 1010.84 1011.72 1012.59 1013.43 1014.22 1014.94 1015.59 1016.16 1016.67 1017.11 1017.48 1017.79 1018.03 1018.20
1004.37 1004.77 1005.00 1005.06 1004.94 1004.66 1004.27 1003.83 1003.39 1003.03 1002.79 1002.71 1002.79 1003.03 1003.41 1003.88 1004.41 1004.95 1005.46 1005.93 1006.34 1006.70 1007.02 1007.35 1007.70 1008.10 1008.57 1009.12 1009.74 1010.43 1011.17 1011.93 1012.68 1013.41 1014.10 1014.74 1015.33 1015.86 1016.34 1016.77 1017.15 1017.46 1017.70 1017.86
1003.50 1003.75 1003.86 1003.84 1003.68 1003.41 1003.08 1002.73 1002.42 1002.20 1002.12 1002.19 1002.43 1002.82 1003.34 1003.95 1004.60 1005.25 1005.87 1006.43 1006.92 1007.36 1007.74 1008.11 1008.47 1008.87 1009.31 1009.80 1010.34 1010.94 1011.56 1012.20 1012.84 1013.46 1014.06 1014.62 1015.14 1015.63 1016.07 1016.48 1016.83 1017.12 1017.34 1017.47
1002.58 1002.70 1002.73 1002.66 1002.50 1002.29 1002.05 1001.83 1001.68 1001.62 1001.71 1001.94 1002.32 1002.83 1003.46 1004.15 1004.88 1005.60 1006.28 1006.90 1007.45 1007.94 1008.37 1008.76 1009.14 1009.54 1009.95 1010.40 1010.89 1011.40 1011.94 1012.49 1013.03 1013.56 1014.08 1014.56 1015.02 1015.44 1015.84 1016.19 1016.49 1016.74 1016.91 1017.00
1001.70 1001.74 1001.71 1001.63 1001.51 1001.38 1001.27 1001.21 1001.22 1001.34 1001.58 1001.95 1002.44 1003.04 1003.73 1004.46 1005.21 1005.95 1006.65 1007.28 1007.86 1008.36 1008.82 1009.23 1009.63 1010.02 1010.43 1010.85 1011.30 1011.76 1012.24 1012.72 1013.20 1013.66 1014.10 1014.52 1014.91 1015.27 1015.60 1015.89 1016.13 1016.30 1016.41 1016.43
1000.92 1000.91 1000.87 1000.82 1000.78 1000.77 1000.80 1000.90 1001.08 1001.36 1001.74 1002.21 1002.78 1003.42 1004.12 1004.84 1005.57 1006.28 1006.94 1007.56 1008.12 1008.63 1009.09 1009.51 1009.92 1010.32 1010.73 1011.14 1011.57 1012.00 1012.44 1012.88 1013.31 1013.72 1014.11 1014.47 1014.79 1015.09 1015.34 1015.55 1015.70 1015.80 1015.83 1015.78
Thickness
5634 5626 5625 5632 5636 5637 5636 5632 5633 5642 5652 5651 5650 5658 5676 5682 5678 5681 5684 5684 5685 5687 5687 5685 5684 5682 5681 5679 5677 5674 5669 5664 5658 5652 5645 5639 5634 5630 5626 5624 5621 5618 5615 5612
5617 5619 5633 5634 5631 5630 5628 5625 5626 5636 5644 5641 5641 5650 5669 5676 5678 5682 5686 5686 5685 5682 5680 5678 5675 5673 5673 5671 5669 5666 5663 5658 5653 5648 5641 5635 5629 5623 5620 5616 5614 5611 5608 5605
5614 5625 5630 5624 5622 5618 5617 5617 5622 5625 5633 5635 5632 5640 5660 5674 5677 5680 5682 5684 5683 5681 5677 5671 5668 5666 5664 5662 5661 5661 5656 5651 5646 5641 5634 5627 5621 5616 5612 5608 5605 5603 5601 5597
5609 5619 5621 5617 5616 5614 5611 5621 5620 5619 5614 5611 5620 5613 5648 5663 5669 5675 5678 5677 5677 5676 5672 5667 5663 5659 5656 5655 5653 5651 5648 5644 5639 5634 5630 5624 5617 5610 5605 5601 5597 5594 5592 5589
5606 5613 5614 5613 5617 5615 5615 5621 5615 5612 5607 5602 5608 5603 5631 5651 5659 5674 5676 5674 5672 5670 5667 5663 5658 5654 5650 5647 5645 5642 5639 5635 5631 5627 5623 5618 5610 5604 5597 5593 5589 5586 5583 5580
5607 5612 5615 5617 5621 5617 5614 5608 5600 5590 5589 5588 5603 5596 5614 5642 5658 5667 5672 5670 5666 5662 5659 5655 5650 5645 5641 5638 5636 5633 5631 5626 5623 5619 5614 5610 5603 5596 5590 5585 5581 5576 5573 5569
5597 5605 5613 5616 5610 5609 5606 5594 5580 5579 5576 5583 5598 5594 5613 5647 5656 5660 5664 5664 5659 5654 5650 5646 5641 5638 5634 5630 5628 5625 5623 5618 5614 5610 5606 5601 5596 5591 5585 5579 5574 5569 5564 5560
5584 5589 5604 5610 5609 5601 5598 5595 5579 5572 5571 5577 5588 5589 5622 5647 5652 5654 5656 5657 5652 5647 5644 5642 5638 5635 5630 5626 5622 5618 5615 5610 5606 5602 5597 5593 5588 5583 5578 5573 5567 5562 5557 5552
5589 5590 5606 5609 5612 5606 5591 5588 5594 5578 5570 5568 5578 5594 5617 5645 5650 5651 5650 5647 5644 5641 5638 5635 5631 5628 5624 5620 5616 5613 5608 5603 5599 5594 5589 5584 5580 5575 5570 5564 5559 5553 5548 5543
5596 5586 5597 5601 5602 5600 5597 5590 5576 5569 5562 5562 5573 5585 5604 5630 5639 5642 5642 5640 5638 5635 5632 5628 5625 5621 5618 5614 5609 5604 5601 5597 5592 5587 5582 5577 5572 5567 5561 5555 5550 5544 5539 5534
5595 5587 5584 5588 5590 5589 5585 5582 5579 5569 5563 5560 5563 5586 5615 5623 5630 5631 5634 5635 5633 5630 5627 5624 5620 5616 5611 5606 5601 5597 5593 5588 5583 5579 5574 5568 5563 5557 5552 5546 5541 5535 5530 5524
5592 5582 5573 5580 5590 5593 5590 5586 5579 5569 5563 5558 5559 5583 5622 5622 5623 5625 5629 5630 5629 5626 5623 5619 5614 5609 5604 5600 5595 5591 5587 5582 5577 5572 5566 5560 5554 5548 5542 5536 5531 5526 5520 5514
5590 5576 5566 5569 5575 5580 5582 5582 5583 5581 5569 5554 5555 5583 5617 5618 5622 5625 5625 5625 5622 5620 5616 5612 5608 5605 5601 5596 5591 5586 5581 5576 5569 5564 5557 5551 5544 5538 5533 5527 5521 5515 5510 5504
5594 5576 5577 5577 5582 5582 5577 5579 5579 5574 5565 5561 5568 5587 5604 5611 5616 5620 5621 5619 5616 5614 5612 5609 5606 5602 5598 5593 5587 5581 5574 5569 5562 5555 5549 5542 5536 5530 5524 5517 5511 5505 5499 5494
5584 5575 5577 5583 5587 5582 5583 5582 5577 5575 5577 5575 5583 5586 5602 5609 5610 5613 5615 5614 5612 5610 5609 5608 5605 5600 5594 5588 5581 5575 5568 5561 5555 5548 5540 5534 5527 5520 5513 5507 5501 5495 5489 5484
5577 5574 5572 5575 5579 5577 5577 5579 5577 5578 5580 5579 5582 5588 5607 5607 5605 5605 5607 5607 5607 5608 5607 5605 5601 5596 5590 5585 5577 5570 5562 5555 5547 5540 5532 5524 5517 5510 5503 5497 5491 5484 5479 5473
5569 5567 5563 5563 5571 5567 5563 5578 5580 5578 5580 5581 5582 5598 5607 5602 5601 5603 5606 5604 5605 5606 5604 5600 5597 5593 5588 5581 5573 5564 5556 5547 5538 5531 5522 5514 5507 5500 5493 5487 5480 5474 5469 5463
5568 5563 5557 5553 5556 5551 5581 5592 5592 5587 5589 5588 5592 5598 5601 5601 5602 5601 5601 5601 5601 5600 5597 5594 5589 5584 5578 5571 5563 5554 5545 5537 5529 5520 5512 5504 5497 5490 5483 5476 5470 5465 5459 5453
5569 5562 5547 5542 5548 5556 5573 5587 5587 5582 5585 5593 5592 5596 5596 5593 5592 5595 5597 5594 5594 5591 5588 5583 5579 5573 5566 5559 5551 5543 5533 5525 5518 5510 5502 5494 5487 5479 5473 5466 5460 5455 5449 5443
5553 5558 5548 5538 5546 5553 5579 5594 5591 5585 5582 5600 5594 5593 5589 5582 5581 5590 5590 5585 5581 5577 5573 5569 5565 5559 5552 5545 5539 5531 5521 5514 5507 5500 5492 5484 5477 5470 5463 5457 5451 5445 5439 5434
5542 5542 5542 5539 5546 5555 5579 5587 5584 5572 5585 5601 5594 5590 5582 5578 5583 5580 5574 5570 5566 5563 5559 5555 5551 5545 5538 5532 5526 5518 5509 5503 5496 5488 5480 5473 5466 5459 5453 5446 5440 5434 5428 5423
5551 5541 5536 5534 5540 5556 5582 5576 5579 5587 5593 5594 5591 5586 5578 5574 5569 5564 5561 5556 5552 5548 5544 5540 5536 5528 5523 5518 5513 5505 5497 5490 5483 5476 5468 5461 5454 5448 5442 5435 5429 5422 5416 5410
5555 5564 5559 5560 5569 5579 5577 5582 5586 5585 5585 5585 5582 5578 5571 5564 5559 5554 5548 5543 5539 5535 5531 5527 5522 5514 5507 5503 5499 5492 5484 5477 5470 5463 5456 5449 5443 5436 5430 5423 5417 5410 5404 5397
5543 5552 5549 5552 5561 5570 5572 5574 5578 5577 5578 5578 5574 5568 5562 5558 5551 5544 5537 5531 5527 5523 5518 5514 5508 5501 5494 5489 5484 5478 5471 5465 5458 5450 5443 5437 5430 5424 5418 5412 5406 5399 5392 5386
5551 5541 5544 5549 5560 5564 5569 5567 5570 5568 5568 5566 5563 5559 5554 5549 5542 5534 5527 5521 5516 5511 5506 5501 5496 5489 5482 5476 5470 5465 5459 5453 5445 5438 5432 5425 5419 5413 5407 5402 5395 5389 5384 5374
5538 5545 5552 5559 5565 5564 5570 5571 5564 5560 5559 5555 5551 5547 5543 5540 5533 5525 5518 5511 5505 5499 5494 5488 5482 5476 5470 5464 5458 5452 5447 5440 5433 5426 5420 5413 5407 5401 5395 5390 5386 5382 5374 5369